Tracking 26894 objects as of 2-Feb-2023
HD Live streaming from Space Station
objects crossing your sky now

ESTRELA DU SOL-TELSTAR14

Track ESTRELA DU SOL-TELSTAR14 now!
ESTRELA DU SOL-TELSTAR14 is classified as:


NORAD ID: 28137
Int'l Code: 2004-001A
Perigee: 36,171.8 km
Apogee: 36,234.0 km
Inclination: 8.5 °
Period: 1,457.1 minutes
Semi major axis: 42573 km
RCS: 12.5892 m2 (large)
Launch date: January 11, 2004
Source: United States/Brazil (USBZ)
Launch site: SEA LAUNCH (SEAL)

41 Ku-band transponders; direct-to-home video and internet to Brazil and North America.
Your satellite tracking list
Your tracking list is empty




NASA's NSSDC Master Catalog

Two Line Element Set (TLE):
1 28137U 04001A   23032.54810000  .00000023  00000-0  00000-0 0  9999
2 28137   8.5390  54.0608 0007296 323.2348 206.8165  0.98829774 69412
Source of the keplerian elements: AFSPC